Flag for Greenland Weather past 2 weeks in Ittoqqortoormiit, Greenland

Now
42 °F

Overcast.


Feels Like: 37 °F
Forecast: 37 / 38 °F
Wind: 8 mph from North

Location: Scoresbysund

Current Time: Sep 2, 2014 at 5:25:24 PM

Latest Report: Sep 2, 2014 at 4:00 PM


Visibility: 31 mi

Pressure: 29.44 "Hg

Humidity: 81%

Dew point: 37 °F

Location of IttoqqortoormiitLocation

Historic Weather in Ittoqqortoormiit — Graph

°F

Ittoqqortoormiit temperature yesterday

Maximum temperature yesterday: 44 °F (at 10:00 PM)
Minimum temperature yesterday: 40 °F (at 6:00 AM)
Average temperature yesterday: 42 °F

Past Weeks' High & Low Weather Summary

 TemperatureHumidityPressure
High58 °F (Aug 22, 4:00 PM)99% (Aug 23, 6:00 AM)30.28 "Hg (Aug 23, 6:00 AM)
Low38 °F (Aug 23, 4:00 AM)26% (Aug 28, 2:00 PM)29.35 "Hg (Sep 2, 5:00 AM)
Average44 °F72%29.81 "Hg
* Reported Aug 18 4:00 PM — Sep 2 4:00 PM, Ittoqqortoormiit, Weather by CustomWeather, © 2014

Note: Actual official high and low records may vary slightly from our data, if they occured in-between our weather recording intervals... More about our weather records

Advertising

Ittoqqortoormiit weather history for previous 24 hours

 ConditionsComfort  
Time TempWeatherWind HumidityBarometerVisibility
4:00 PM
Sep 2
42 °FOvercast.8 mph81%29.44 "Hg31 mi
3:00 PM42 °FOvercast.18 mph81%29.44 "Hg31 mi
2:00 PM42 °FRain showers. Overcast.14 mph81%29.44 "Hg25 mi
1:00 PM42 °FLight rain. Overcast.21 mph80%29.41 "Hg25 mi
12:00 PM43 °FLight rain. Overcast.18 mph77%29.41 "Hg25 mi
11:00 AM43 °FDrizzle. Overcast.18 mph81%29.41 "Hg25 mi
10:00 AM43 °FLight rain. Overcast.20 mph79%29.41 "Hg19 mi
9:00 AM44 °FLight rain. Overcast.22 mph75%29.38 "Hg15 mi
8:00 AM44 °FRain. Overcast.23 mph76%29.38 "Hg6 mi
7:00 AM44 °FLight rain. Overcast.25 mph77%29.35 "Hg9 mi
6:00 AM46 °FRain. Overcast.25 mph73%29.35 "Hg4 mi
5:00 AM44 °FRain. Overcast.15 mph79%29.35 "Hg9 mi
4:00 AM45 °FRain. Overcast.15 mph79%29.38 "Hg6 mi
3:00 AM43 °FRain. Overcast.6 mph83%29.38 "Hg7 mi
2:00 AM42 °FRain. Overcast.2 mph92%29.38 "Hg8 mi
1:00 AM43 °FRain. Overcast.18 mph85%29.38 "Hg4 mi
12:00 AM43 °FFreezing rain. Overcast.23 mph88%29.38 "Hg2 mi
11:00 PM
Sep 1
43 °FRain. Overcast.35 mph85%29.38 "Hg2 mi
10:00 PM44 °FRain. Overcast.20 mph80%29.41 "Hg4 mi
9:00 PM43 °FRain. Overcast.17 mph81%29.44 "Hg4 mi
8:00 PM42 °FRain. Overcast.21 mph86%29.44 "Hg5 mi
7:00 PM42 °FRain. Overcast.26 mph88%29.44 "Hg6 mi
6:00 PM42 °FLight rain. Overcast.30 mph87%29.47 "Hg7 mi
5:00 PM43 °FLight rain. Overcast.28 mph87%29.47 "Hg7 mi
Weather by CustomWeather, © 2014

See weather overviewHow to use our weather pages